This is the latest recevied weather packets stored in our database for station/object EA1HTW-13. If no packets are shown the sender has not sent any weather packets the latest 1 day(s).
| Time | Temp. | Humidity | Pressure | Rain* | Wind** | Luminosity | Snow |
|---|---|---|---|---|---|---|---|
| 1778058674 | 16.67° C | 55% | 1008.8 hPa | 0 mm | - | - | - |
| 1778058134 | 16.67° C | 60% | 1009 hPa | 0 mm | - | - | - |
| 1778057594 | 16.67° C | 61% | 1008.9 hPa | 0 mm | - | - | - |
| 1778055975 | 15.56° C | 63% | 1008.8 hPa | 0 mm | - | - | - |
| 1778055435 | 15.56° C | 66% | 1008.8 hPa | 0 mm | - | - | - |
| 1778054895 | 15° C | 67% | 1008.7 hPa | 0 mm | - | - | - |
| 1778054354 | 14.44° C | 69% | 1008.9 hPa | 0 mm | - | - | - |
| 1778053814 | 14.44° C | 70% | 1009 hPa | 0 mm | - | - | - |
| 1778053274 | 14.44° C | 70% | 1008.9 hPa | 0 mm | - | - | - |
| 1778052735 | 13.89° C | 70% | 1008.8 hPa | 0 mm | - | - | - |
| 1778052194 | 13.89° C | 71% | 1009 hPa | 0 mm | - | - | - |
| 1778051114 | 13.33° C | 72% | 1009 hPa | 0 mm | - | - | - |
| 1778048955 | 12.22° C | 77% | 1008.7 hPa | 0 mm | - | - | - |
| 1778048416 | 12.22° C | 76% | 1008.6 hPa | 0 mm | - | - | - |
| 1778047875 | 12.22° C | 76% | 1008.4 hPa | 0 mm | - | - | - |
| 1778046794 | 12.78° C | 74% | 1008.5 hPa | 0 mm | - | - | - |
| 1778046255 | 12.78° C | 73% | 1008.6 hPa | 0 mm | - | - | - |
| 1778045714 | 12.78° C | 73% | 1008.5 hPa | 0 mm | - | - | - |
| 1778043555 | 12.78° C | 73% | 1008.4 hPa | 0 mm | - | - | - |
| 1778043015 | 12.78° C | 73% | 1008.5 hPa | 0 mm | - | - | - |
| 1778042475 | 12.78° C | 73% | 1008.5 hPa | 0 mm | - | - | - |
| 1778041934 | 12.78° C | 73% | 1008.5 hPa | 0 mm | - | - | - |
| 1778041395 | 12.78° C | 73% | 1008.5 hPa | 0 mm | - | - | - |
| 1778040316 | 12.78° C | 73% | 1008.6 hPa | 0 mm | - | - | - |
| 1778039775 | 13.33° C | 73% | 1008.7 hPa | 0 mm | - | - | - |
* Rain latest hour (hover to see other rain measurements)
** Current wind speed in m/s (hover to see current wind gust speed)